Regional Weather Roundup
Issued by NWS

Home | Current Version | Previous Version | Text Only | Print | Product List | Glossary On
Versions: 1 2 3 4 5 6 7 8 9 10 11 12 13 14 15 16 17 18 19 20 21 22 23 24 25 26 27 28 29 30 31 32 33 34 35 36 37 38 39 40 41 42 43 44 45 46 47 48 49 50
000
ASUS43 KDTX 232301
RWRMI
MICHIGAN HOURLY REGIONAL WEATHER ROUNDUP
NATIONAL WEATHER SERVICE DETROIT/PONTIAC MI
700 PM EDT THU MAR 23 2017

NOTE: "FAIR" INDICATES FEW OR NO CLOUDS BELOW 12,000 FEET WITH NO
SIGNIFICANT WEATHER AND/OR OBSTRUCTION TO VISIBILITY.

MIZ047>049-052>055-059>063-066>070-074>076-081>083-240000-
SOUTHEAST LOWER MICHIGAN

CITY           SKY/WX    TMP DP  RH WIND       PRES   REMARKS
ADRIAN         CLOUDY    40  25  55 SE13      30.27F WCI  32
ALMA           CLOUDY    42  17  36 SE7       30.23F
ANN ARBOR      CLOUDY    39  20  46 E8        30.28F WCI  33
BAD AXE        CLOUDY    38  14  36 S8        30.30S WCI  33
CARO           CLOUDY    38  13  35 SE8       30.27F WCI  33
DETROIT CITY   CLOUDY    40  20  44 SE9       30.33F WCI  34
DETROIT        CLOUDY    42  15  33 S8        30.32F
FLINT          CLOUDY    41   8  25 SE12      30.27F
GROSSE ILE     CLOUDY    38  21  49 SE9       30.31S WCI  31
HILLSDALE      CLOUDY    45  16  31 SE9G17    30.23S
HOWELL         CLOUDY    40   9  27 SE13      30.25F WCI  33

CITY           SKY/WX    TMP DP  RH WIND       PRES   REMARKS
JACKSON        MOCLDY    43  20  39 SE13      30.24F
LAMBERTVILLE   CLOUDY    38  26  60 E7        30.29F WCI  33
LANSING        CLOUDY    44  13  28 SE15      30.23F
LAPEER         CLOUDY    37  12  36 SE9       30.30F WCI  30
MASON          MOCLDY    42  21  43 SE9       30.24F
MONROE         CLOUDY    36  28  73 E7        30.30F WCI  30
MT. CLEMENS    CLOUDY    37  21  52 SE9       30.32F WCI  30
PONTIAC        CLOUDY    40   7  25 SE8       30.28S WCI  34
PORT HOPE        N/A     36  19  50 SE14      30.29F WCI  27
PORT HURON     CLOUDY    37  12  35 SE8       30.34S WCI  31
TRI CITIES     CLOUDY    42  16  34 S8        30.25F
MIDLAND        CLOUDY    42  11  27 S6        30.24F
TROY           CLOUDY    42  10  26 SE7       30.33S
SAGINAW HB     CLOUDY    43   3  19 SE13      30.25F
$$
MIZ043>046-050>051-056>058-064>065-071>073-077>080-240000-
SOUTHWEST LOWER MICHIGAN

CITY           SKY/WX    TMP DP  RH WIND       PRES   REMARKS
BATTLE CREEK   CLOUDY    47  14  26 S15G21    30.22F
BENTON HARBOR  CLOUDY    46  20  35 SE14G24   30.17F
BIG RAPIDS     CLOUDY    41   8  25 S9        30.17F
COLDWATER      MOCLDY    46  17  32 SE8G16    30.23S
FREMONT        CLOUDY    44   7  21 S6        30.17F
HOLLAND        CLOUDY    46  16  30 SE12      30.18F
GRAND RAPIDS   CLOUDY    46  13  26 S14       30.19F
IONIA          CLOUDY    45  16  31 SE10      30.19F
KALAMAZOO      CLOUDY    46  17  31 S10       30.21F
LUDINGTON      CLOUDY    43  14  30 S9        30.14F
MARSHALL       CLOUDY    47  14  26 S9        30.21F
MOUNT PLEASANT CLOUDY    42  15  34 SE7       30.22F
MUSKEGON       CLOUDY    43  17  35 S6        30.17F
SOUTH HAVEN    CLOUDY    45  19  36 SE7       30.18F
$$
MIZ016>042-240000-
NORTHERN LOWER MICHIGAN

CITY           SKY/WX    TMP DP  RH WIND       PRES   REMARKS
ALPENA         CLOUDY    34  21  59 SE8       30.28F WCI  27
BEAVER ISLAND  CLOUDY    37  14  38 SE6       30.16F WCI  32
BELLAIRE       CLOUDY    40  10  29 S8        30.19F WCI  34
CADILLAC       CLOUDY    38  14  37 SE7       30.15F WCI  32
CHARLEVOIX     CLOUDY    38  13  35 SE6       30.20F WCI  34
FRANKFORT      CLOUDY    40  11  30 SE7       30.15F WCI  35
GAYLORD        CLOUDY    38  11  32 S9        30.17F WCI  31
GRAYLING       CLOUDY    37  12  35 SE12      30.20F WCI  30
HARBOR SPRINGS CLOUDY    38  13  35 CALM      30.18F
HOUGHTON LAKE  CLOUDY    38  12  34 S9        30.20F WCI  31
MANISTEE       CLOUDY    41  12  30 SE9       30.14F
OSCODA         CLOUDY    36  25  64 SE6       30.27F WCI  31
PELLSTON       CLOUDY    38   9  30 SE5       30.19F WCI  34
ROGERS CITY    FLURRIES  35  22  59 SE9       30.25F WCI  27
TRAVERSE CITY  CLOUDY    42  10  27 VRB5      30.17F
$$
MIZ007>008-015-240000-
EASTERN UPPER MICHIGAN

CITY           SKY/WX    TMP DP  RH WIND       PRES   REMARKS
KINROSS        CLOUDY    34  22  61 SE12      30.19F WCI  25
MACKINAC ISLAN CLOUDY    37  13  38 S6        30.19F WCI  32
NEWBERRY       CLOUDY    33  15  46 S9        30.14F WCI  26
S. S. MARIE    CLOUDY    35  21  56 E7        30.20F WCI  29
MUNISING         N/A     34  25  69 S13G22    30.09F WCI  25
$$
MIZ004>006-011>014-085-240000-
CENTRAL UPPER MICHIGAN

CITY           SKY/WX    TMP DP  RH WIND       PRES   REMARKS
MANISTIQUE     CLOUDY    34  28  80 S7        30.14F WCI  28
ESCANABA       CLOUDY    34  28  79 S9        30.10F WCI  27
MENOMINEE        N/A    N/A N/A N/A MISG        N/A
SAWYER-GWINN   CLOUDY    30  27  86 S13       30.04F WCI  20
$$
MIZ001>003-009>011-084-240000-
WESTERN UPPER MICHIGAN

CITY           SKY/WX    TMP DP  RH WIND       PRES   REMARKS
IRON MOUNTAIN  CLOUDY    34  22  61 SE9       30.00F WCI  27
HOUGHTON       LGT RAIN  33  26  75 S10       29.98S WCI  25
COPPER HARBOR    N/A     34  26  72 SW13G23   29.97F WCI  25
IRONWOOD       CLOUDY    38  22  52 SE13      29.87F WCI  30
$$

ABBREVIATIONS USED IN REMARKS
   TC - TEMPERATURE IN CELSIUS
  WCI - WIND CHILL INDEX
   HX - HEAT INDEX
  VSB - VISIBILITY





USA.gov is the U.S. government's official web portal to all federal, state and local government web resources and services.